Weather History for PHJR - March, 2013

Change the Weather History Date:

Saturday, March 2, 2013

  Actual Average (PHNL) Record (PHNL)
Temperature  
Mean Temperature 75 °F 74 °F  
Max Temperature 81 °F 81 °F 86 °F (2015)
Min Temperature 69 °F 67 °F 58 °F (1983)
Degree Days  
Heating Degree Days 0 0  
Month to date heating degree days 0  
Since 1 July heating degree days 0  
Cooling Degree Days 10 9  
Month to date cooling degree days 17  
Year to date cooling degree days 499  
Growing Degree Days 25 (Base 50)    
Moisture  
Dew Point 56 °F    
Average Humidity 55    
Maximum Humidity 68    
Minimum Humidity 39    
Precipitation  
Precipitation 0.00 in 0.06 in 1.13 in (1989)
Month to date precipitation 0.13  
Year to date precipitation 4.43  
Snow  
Snow 0.00 in - - ()
Month to date snowfall  
Since 1 July snowfall  
Snow Depth -    
Sea Level Pressure  
Sea Level Pressure 30.17 in    
Wind  
Wind Speed 7 mph (ENE)    
Max Wind Speed 15 mph    
Max Gust Speed 24 mph    
Visibility 10 miles    
Events      
T = Trace of Precipitation, MM = Missing Value Source: NWS Daily Summary

Daily Weather History Graph

Daily Weather History Graph

Search for Another Location

Airport or City:

Trip Planner

Search our weather history database for the weather conditions in past years. The results will help you decide how hot, cold, wet, or windy it might be!

Date:

Astronomy

Mar. 02, 2013 Rise Set
Actual Time 6:51 AM HST 6:37 PM HST
Civil Twilight 6:29 AM HST 6:59 PM HST
Nautical Twilight 6:03 AM HST 7:25 PM HST
Astronomical Twilight 5:37 AM HST 7:51 PM HST
Moon 11:41 PM HST (3/2) 10:12 AM HST (3/2)
Length of Visible Light 12h 30m
Length of Day
11h 45m
Waning Gibbous, 72% of the Moon is Illuminated
Mar 2
Waning Gibbous
Mar 4
Last Quarter
Mar 11
New
Mar 19
First Quarter
Mar 26
Full

Hourly Weather History & Observations

Time (HST) Temp. Heat Index Dew Point Humidity Pressure Visibility Wind Dir Wind Speed Gust Speed Precip Events Conditions
12:19 AM 69.8 °F - 55.4 °F 60% 30.17 in 10.0 mi East 5.8 mph - N/A   Partly Cloudy
12:53 AM 70.0 °F - 57.0 °F 63% 30.19 in 10.0 mi Variable 4.6 mph - N/A   Clear
1:53 AM 71.1 °F - 59.0 °F 66% 30.17 in 10.0 mi Variable 4.6 mph 19.6 mph N/A   Mostly Cloudy
2:53 AM 70.0 °F - 54.0 °F 57% 30.16 in 10.0 mi East 4.6 mph - N/A   Partly Cloudy
3:53 AM 71.1 °F - 57.0 °F 61% 30.13 in 10.0 mi ENE 8.1 mph 19.6 mph N/A   Overcast
4:53 AM 71.1 °F - 57.0 °F 61% 30.14 in 10.0 mi Variable 6.9 mph - N/A   Overcast
5:53 AM 71.1 °F - 57.0 °F 61% 30.14 in 10.0 mi East 6.9 mph 17.3 mph N/A   Overcast
6:53 AM 69.1 °F - 57.9 °F 68% 30.17 in 10.0 mi ENE 4.6 mph - N/A   Overcast
7:53 AM 72.0 °F - 55.0 °F 55% 30.18 in 10.0 mi East 5.8 mph - N/A   Partly Cloudy
8:53 AM 73.9 °F - 55.9 °F 53% 30.20 in 10.0 mi East 10.4 mph 19.6 mph N/A   Overcast
9:53 AM 75.0 °F - 55.9 °F 51% 30.20 in 10.0 mi East 12.7 mph 20.7 mph N/A   Mostly Cloudy
10:53 AM 79.0 °F - 55.9 °F 45% 30.19 in 10.0 mi East 15.0 mph 24.2 mph N/A   Mostly Cloudy
11:53 AM 78.1 °F - 53.1 °F 42% 30.18 in 10.0 mi Variable 6.9 mph 18.4 mph N/A   Mostly Cloudy
12:53 PM 81.0 °F 80.8 °F 55.9 °F 42% 30.15 in 10.0 mi ENE 13.8 mph 21.9 mph N/A   Mostly Cloudy
1:53 PM 79.0 °F - 55.0 °F 44% 30.14 in 10.0 mi ENE 8.1 mph 17.3 mph N/A   Mostly Cloudy
2:53 PM 79.0 °F - 52.0 °F 39% 30.12 in 10.0 mi East 8.1 mph 24.2 mph N/A   Partly Cloudy
3:53 PM 79.0 °F - 53.1 °F 40% 30.12 in 10.0 mi Variable 6.9 mph 18.4 mph N/A   Partly Cloudy
4:53 PM 75.9 °F - 55.9 °F 50% 30.12 in 10.0 mi NE 8.1 mph 18.4 mph N/A   Scattered Clouds
5:53 PM 73.9 °F - 55.9 °F 53% 30.14 in 10.0 mi Variable 6.9 mph - N/A   Partly Cloudy
6:53 PM 72.0 °F - 57.0 °F 59% 30.17 in 10.0 mi Variable 5.8 mph 19.6 mph N/A   Scattered Clouds
7:53 PM 71.1 °F - 57.0 °F 61% 30.19 in 10.0 mi Variable 4.6 mph - N/A   Partly Cloudy
8:53 PM 71.1 °F - 57.0 °F 61% 30.22 in 10.0 mi Variable 3.5 mph - N/A   Partly Cloudy
9:53 PM 70.0 °F - 57.0 °F 63% 30.23 in 10.0 mi Variable 5.8 mph - N/A   Partly Cloudy
10:53 PM 70.0 °F - 57.0 °F 63% 30.23 in 10.0 mi ENE 5.8 mph - N/A   Scattered Clouds
11:53 PM 70.0 °F - 55.9 °F 61% 30.23 in 10.0 mi ENE 5.8 mph - N/A   Clear